Price, UT

10:15 PM MDT on July 23, 2017 (GMT -0600)
Carbon County

Weather History for KPUC - May, 2013

Change the Weather History Date:

Friday, May 24, 2013

  Actual Average Record
Temperature  
Mean Temperature 64 °F -  
Max Temperature 79 °F 74 °F 88 °F (1984)
Min Temperature 51 °F 44 °F 34 °F (2007)
Degree Days  
Heating Degree Days 1    
Growing Degree Days 14 (Base 50)    
Moisture  
Dew Point 12 °F    
Average Humidity 14    
Maximum Humidity 30    
Minimum Humidity 7    
Precipitation  
Precipitation 0.00 in - - ()
Sea Level Pressure  
Sea Level Pressure 29.80 in    
Wind  
Wind Speed 8 mph (SSW)    
Max Wind Speed 16 mph    
Max Gust Speed 23 mph    
Visibility 10 miles    
Events      
Averages and records for this station are not official NWS values.
T = Trace of Precipitation, MM = Missing Value Source: NWS Daily Summary

Daily Weather History Graph

Daily Weather History Graph

Search for Another Location

Airport or City:

Trip Planner

Search our weather history database for the weather conditions in past years. The results will help you decide how hot, cold, wet, or windy it might be!

Date:

Astronomy

May. 24, 2013 Rise Set
Actual Time 6:01 AM MDT 8:38 PM MDT
Civil Twilight 5:30 AM MDT 9:10 PM MDT
Nautical Twilight 4:51 AM MDT 9:49 PM MDT
Astronomical Twilight 4:07 AM MDT 10:33 PM MDT
Moon 8:24 PM MDT 5:36 AM MDT
Length of Visible Light 15h 39m
Length of Day
14h 37m
Full, 100% of the Moon is Illuminated
May 24
Full
May 24
Full
May 31
Last Quarter
Jun 8
New
Jun 16
First Quarter

Hourly Weather History & Observations

Time (MDT) Temp. Dew Point Humidity Pressure Visibility Wind Dir Wind Speed Gust Speed Precip Events Conditions
12:53 AM 63.0 °F 9.0 °F 12% 29.67 in 10.0 mi Calm Calm - N/A   Clear
1:53 AM 60.1 °F 12.0 °F 15% 29.70 in 10.0 mi NW 11.5 mph - N/A   Clear
2:53 AM 57.0 °F 19.9 °F 24% 29.75 in 10.0 mi NW 11.5 mph 19.6 mph N/A   Clear
3:53 AM 54.0 °F 21.9 °F 29% 29.78 in 10.0 mi North 9.2 mph - N/A   Clear
4:53 AM 52.0 °F 21.0 °F 30% 29.79 in 10.0 mi NW 9.2 mph - N/A   Clear
5:53 AM 51.1 °F 18.0 °F 27% 29.83 in 10.0 mi NW 6.9 mph - N/A   Clear
6:53 AM 53.1 °F 17.1 °F 24% 29.85 in 10.0 mi WNW 4.6 mph - N/A   Clear
7:53 AM 59.0 °F 15.1 °F 18% 29.84 in 10.0 mi NNW 4.6 mph - N/A   Clear
8:53 AM 61.0 °F 17.1 °F 18% 29.89 in 10.0 mi ESE 8.1 mph - N/A   Clear
9:53 AM 64.9 °F 18.0 °F 16% 29.87 in 10.0 mi SSE 10.4 mph - N/A   Clear
10:53 AM 66.0 °F 10.0 °F 11% 29.88 in 10.0 mi South 8.1 mph - N/A   Clear
11:53 AM 71.1 °F 10.9 °F 10% 29.85 in 10.0 mi South 8.1 mph - N/A   Clear
12:53 PM 73.0 °F 9.0 °F 8% 29.85 in 10.0 mi SSE 15.0 mph 19.6 mph N/A   Clear
1:53 PM 75.0 °F 9.0 °F 8% 29.83 in 10.0 mi SSW 12.7 mph 19.6 mph N/A   Clear
2:53 PM 75.0 °F 9.0 °F 8% 29.83 in 10.0 mi SSE 11.5 mph 23.0 mph N/A   Clear
3:53 PM 77.0 °F 9.0 °F 7% 29.80 in 10.0 mi WSW 16.1 mph 21.9 mph N/A   Clear
4:53 PM 77.0 °F 10.0 °F 8% 29.80 in 10.0 mi South 8.1 mph 20.7 mph N/A   Clear
5:53 PM 77.0 °F 8.1 °F 7% 29.79 in 10.0 mi South 10.4 mph 20.7 mph N/A   Clear
6:53 PM 75.0 °F 8.1 °F 8% 29.77 in 10.0 mi SSW 6.9 mph 16.1 mph N/A   Clear
7:53 PM 73.9 °F 6.1 °F 7% 29.74 in 10.0 mi SE 10.4 mph - N/A   Clear
8:53 PM 66.9 °F 8.1 °F 10% 29.78 in 10.0 mi SSE 8.1 mph - N/A   Clear
9:53 PM 64.0 °F 7.0 °F 11% 29.79 in 10.0 mi East 6.9 mph - N/A   Clear
10:53 PM 57.9 °F 7.0 °F 13% 29.83 in 10.0 mi North 6.9 mph - N/A   Clear
11:53 PM 60.1 °F 8.1 °F 13% 29.78 in 10.0 mi Calm Calm - N/A   Clear